GFSNIL_sfc_wetblb_057.txt.gz
Wetbulb
35.01 34.41 33.37 31.63 30.39 29.38 28.33 27.46 26.85 26.87 26.87 26.91 27.07 26.70 26.57 25.79 25.47 25.08 24.61 24.17 24.58 24.94
33.98 32.97 31.82 28.29 27.58 27.47 26.71 27.88 26.79 26.96 26.64 26.33 26.10 25.96 25.28 25.25 24.15 24.05 23.66 23.49 23.85 23.78
32.71 32.03 29.15 28.77 27.64 27.16 27.21 27.64 26.57 26.11 26.13 25.60 25.20 24.82 24.51 23.69 23.76 23.40 22.53 23.37 23.09 23.05
31.13 29.29 29.26 28.88 27.57 26.94 27.22 26.54 26.22 26.24 25.80 25.40 24.70 24.04 23.52 23.17 22.96 22.81 22.49 22.03 22.18 22.16
29.69 28.89 28.47 27.70 26.93 26.78 26.66 26.39 26.15 25.80 25.59 25.08 24.60 23.70 23.53 22.85 22.68 22.06 21.90 21.85 21.52 20.91
28.64 28.27 28.11 27.12 26.90 26.82 25.96 25.52 25.44 25.46 25.04 24.77 24.48 23.98 23.86 23.32 22.41 21.62 21.47 21.37 21.04 20.65
28.33 28.95 28.84 28.04 26.87 26.38 25.99 25.41 25.45 25.36 24.59 23.89 23.74 23.76 23.70 23.31 21.80 20.84 20.86 21.36 21.05 20.46
29.35 29.88 28.99 27.31 27.00 26.44 25.90 26.07 25.89 24.08 23.52 23.35 23.47 24.00 23.55 22.86 21.35 21.17 20.30 20.74 21.78 21.45
29.12 28.33 27.37 26.61 26.23 25.90 25.39 24.61 24.52 24.13 23.71 22.68 23.61 27.80 29.12 24.60 22.06 21.68 20.93 20.41 20.53 20.81
28.71 27.91 27.38 26.91 26.00 25.37 24.58 24.65 23.97 23.65 23.15 22.90 23.22 29.09 30.60 29.47 22.18 21.55 21.17 20.79 21.11 21.00
28.40 28.00 27.16 26.40 25.78 25.20 24.93 24.08 23.81 23.36 23.56 23.44 22.96 28.95 31.00 30.72 22.82 21.23 21.04 20.76 20.92 20.53
28.88 28.10 26.89 26.42 25.85 25.54 25.06 24.33 24.25 24.87 24.00 23.45 23.55 28.82 30.60 30.05 24.45 22.90 21.97 21.55 20.70 20.31
29.60 29.13 27.64 27.50 26.56 26.68 26.38 25.87 25.34 24.86 24.73 24.25 24.15 27.72 30.27 29.91 24.52 21.37 21.59 20.79 20.90 23.51
29.04 29.41 28.92 28.38 27.82 27.53 26.64 26.03 24.99 24.41 24.48 23.28 22.98 22.49 29.55 30.79 24.68 23.23 20.01 19.57 19.45 20.17

GFSNIL_sfc_wetblb_060.txt.gz
Wetbulb
37.04 37.27 36.92 35.48 33.86 32.92 31.59 28.64 27.70 26.81 26.79 26.40 26.48 26.65 26.81 26.60 25.90 25.70 25.82 24.72 24.51 24.66
36.38 35.61 34.57 33.43 32.81 31.71 30.80 28.45 26.69 26.68 25.96 26.11 26.31 26.47 25.89 25.97 25.03 25.09 24.74 24.52 24.24 23.76
35.62 34.96 33.85 32.09 30.32 29.21 28.76 28.00 26.21 25.90 26.15 25.88 25.71 25.59 25.51 24.76 24.83 24.59 23.83 24.45 23.79 23.12
34.14 33.24 31.69 31.07 30.30 29.39 27.37 26.42 26.37 26.44 26.27 25.86 25.49 25.30 25.08 24.88 24.52 24.28 23.66 23.09 23.38 22.96
32.50 31.47 31.01 30.54 28.99 28.13 26.28 26.69 26.54 26.53 26.59 26.03 25.75 25.29 25.12 24.42 24.43 24.00 23.07 22.79 22.82 21.15
31.16 30.79 30.34 29.34 28.23 26.57 26.07 26.18 26.19 26.43 26.10 25.85 25.44 24.82 25.24 24.97 24.47 23.96 23.51 23.00 22.00 21.17
31.07 30.55 30.23 28.70 27.43 26.65 26.65 26.05 25.88 26.14 25.98 25.80 25.34 25.10 24.88 24.52 23.63 23.37 23.32 22.56 22.15 20.97
30.89 30.87 29.45 28.08 26.94 26.77 26.13 26.04 25.99 25.41 24.78 24.63 24.62 24.81 24.19 24.15 23.90 23.26 22.36 22.24 22.47 21.49
30.10 29.33 28.52 27.04 26.66 26.22 25.94 25.46 25.29 24.56 24.32 23.25 24.46 28.76 29.58 25.65 23.75 23.29 22.33 21.51 21.28 21.25
29.58 28.75 27.82 27.04 26.26 25.66 25.09 25.24 24.52 24.43 24.07 23.60 23.84 30.08 31.18 29.83 23.76 23.20 22.37 21.93 21.88 21.43
28.67 28.32 27.54 26.65 26.15 25.91 25.38 24.71 24.44 24.13 24.38 24.17 24.04 30.28 31.45 31.44 24.28 22.75 22.50 21.93 21.73 21.37
29.09 28.48 27.00 26.33 25.89 25.72 25.14 24.73 24.70 24.94 24.21 24.35 23.93 30.07 30.94 30.91 27.15 24.22 22.56 22.02 21.79 21.55
29.53 28.96 27.46 27.35 26.32 26.20 26.07 25.50 25.06 25.08 25.11 25.00 25.97 29.41 30.41 31.23 28.71 25.03 23.96 22.90 22.26 24.50
28.97 28.78 28.50 27.64 27.25 26.37 26.04 25.54 25.28 24.84 25.04 25.67 25.92 26.53 30.34 33.42 29.20 25.77 24.59 23.44 21.86 22.08

GFSNIL_sfc_wetblb_063.txt.gz
Wetbulb
41.41 40.94 40.98 39.84 38.10 36.54 35.61 34.13 31.80 31.73 31.77 31.24 31.13 30.94 31.53 31.65 30.98 31.28 31.17 30.68 30.65 30.28
40.17 40.63 39.90 38.26 36.88 35.54 34.97 32.69 30.88 30.83 30.67 30.38 30.47 30.65 30.71 30.34 29.39 30.13 29.61 29.41 29.04 28.46
38.83 38.87 38.53 36.93 34.81 32.81 31.71 31.10 29.37 29.20 29.99 29.61 29.53 29.30 29.73 28.90 28.68 28.67 28.23 28.20 27.43 26.96
36.44 36.24 35.89 35.14 33.30 31.69 30.62 29.76 29.45 28.98 29.09 28.80 28.49 28.51 28.80 28.43 27.86 27.93 27.41 27.19 27.00 26.33
34.66 34.30 33.50 33.60 31.60 30.97 30.14 29.44 28.80 28.46 28.85 28.52 28.34 28.19 28.14 27.12 27.31 27.02 26.41 26.30 25.78 25.10
34.31 33.50 33.21 32.29 30.59 29.95 29.36 28.80 27.99 28.15 28.24 28.01 27.71 27.43 27.83 27.57 26.90 26.79 26.25 25.50 25.30 24.80
33.95 33.64 33.37 31.81 29.81 29.24 28.91 27.95 27.64 28.08 27.98 27.61 27.02 26.60 26.26 26.36 26.08 25.87 25.55 25.47 25.32 24.59
33.77 33.48 32.50 30.24 29.17 28.74 28.06 28.08 27.84 27.35 26.97 26.75 26.47 26.30 26.16 25.84 25.65 25.14 24.52 24.31 24.61 24.62
32.58 31.63 30.76 29.53 28.58 27.65 27.16 26.78 26.51 26.43 26.07 25.63 25.90 29.61 29.98 26.83 25.33 24.81 24.13 23.37 23.67 24.20
31.19 30.47 29.96 29.08 27.91 26.89 26.26 26.07 25.71 25.89 25.76 25.30 25.44 31.23 31.27 29.55 25.49 24.99 24.19 24.11 23.83 23.40
30.25 29.71 29.24 28.09 27.30 27.07 26.50 25.72 25.76 25.41 25.81 25.57 25.50 31.40 32.05 30.58 25.26 25.09 24.56 24.22 23.84 23.79
29.78 28.61 27.80 27.56 26.89 26.81 26.17 25.87 25.98 26.01 25.54 25.44 25.07 31.87 32.60 31.09 27.32 24.97 24.90 24.85 23.64 23.72
29.12 27.91 26.87 28.06 27.26 27.26 26.86 26.23 25.90 25.84 26.02 25.94 25.34 31.32 32.26 32.04 29.82 28.18 27.79 26.09 24.01 25.17
28.39 27.46 27.84 27.52 27.47 26.81 26.09 25.63 25.56 25.26 25.46 25.67 26.27 28.14 32.40 34.10 29.98 29.18 29.16 27.39 26.00 24.51

GFSNIL_sfc_wetblb_069.txt.gz
Wetbulb
54.22 54.34 54.64 53.05 52.45 50.86 47.34 46.67 44.04 41.46 42.63 44.93 46.64 46.91 46.55 45.09 43.82 43.52 43.06 44.13 41.07 38.48
53.04 53.47 53.93 53.02 52.12 50.37 49.53 48.22 45.72 42.61 40.74 40.99 42.86 44.54 45.02 43.66 42.73 42.95 42.72 41.96 38.64 36.75
51.77 52.54 53.11 52.26 51.24 50.45 48.53 46.27 44.47 41.82 39.93 39.13 40.56 39.86 41.23 39.90 39.11 39.97 38.78 37.38 36.10 34.52
50.75 51.35 51.20 50.33 49.64 48.93 47.68 43.64 39.90 37.38 36.69 36.33 35.98 36.72 37.75 37.03 36.02 36.39 35.08 34.82 33.65 32.58
49.71 49.79 48.99 49.17 48.01 46.25 41.77 37.97 38.50 36.00 34.67 33.71 33.78 34.48 35.24 34.76 34.38 34.16 31.99 32.55 31.84 30.46
48.21 47.47 46.76 46.25 45.14 41.57 38.82 35.73 33.52 33.57 32.54 31.84 32.18 32.06 33.07 32.91 32.72 32.79 32.35 31.47 30.27 29.11
46.79 46.77 46.01 45.77 43.25 39.28 37.55 33.96 32.80 32.43 32.03 31.04 31.22 30.68 30.20 30.33 31.47 31.24 31.28 31.01 30.31 28.98
46.13 46.20 45.27 43.82 41.30 38.32 35.96 33.77 32.21 31.04 30.32 29.76 29.21 29.37 29.34 29.58 30.03 29.72 29.17 29.17 28.96 28.68
43.91 42.49 40.95 39.02 36.42 34.83 33.05 31.93 30.55 29.55 28.95 28.25 28.25 32.12 33.68 30.82 29.29 28.59 28.07 27.32 27.32 27.87
39.36 38.21 37.11 35.53 33.54 32.51 31.29 30.57 29.20 29.10 28.76 28.09 28.04 32.59 33.36 32.45 28.54 28.05 27.61 27.32 27.25 27.92
37.60 36.50 35.65 33.83 32.51 32.34 31.29 29.60 29.00 28.60 28.62 28.08 27.65 32.79 33.59 31.87 28.19 28.02 27.91 27.77 27.86 28.45
36.48 35.15 34.13 32.62 32.15 32.03 30.61 29.24 29.14 29.22 28.63 28.13 27.40 32.71 33.58 30.21 28.23 27.76 27.20 28.02 29.75 30.25
35.34 34.16 33.18 32.72 31.80 31.60 31.00 29.56 28.19 28.40 28.51 28.21 27.73 32.57 32.98 29.77 28.18 26.73 26.15 28.73 30.09 30.26
33.65 32.97 33.11 32.53 31.89 30.76 28.93 27.54 27.19 26.68 27.39 27.27 29.75 31.61 33.35 30.96 28.69 27.69 26.53 26.30 28.24 29.66

GFSNIL_sfc_wetblb_072.txt.gz
Wetbulb
50.58 49.50 50.08 50.02 49.49 48.63 47.52 48.03 47.47 47.09 47.92 48.24 48.54 47.91 46.33 44.88 43.79 43.98 43.05 42.09 40.95 39.99
49.39 49.53 49.86 49.32 48.67 48.79 47.38 46.84 44.62 44.95 45.51 46.37 47.09 47.24 46.68 45.16 43.83 44.36 43.09 43.14 40.28 35.55
48.09 48.11 48.80 48.78 47.58 46.74 46.06 45.75 43.75 43.42 43.76 43.36 44.64 45.46 46.02 44.64 43.65 42.54 41.26 38.66 34.98 33.24
46.62 46.96 47.65 47.60 46.75 46.15 44.78 43.54 43.04 41.80 41.62 39.97 40.45 42.14 43.48 41.72 40.15 40.39 37.33 35.03 33.74 31.97
45.90 46.10 45.99 46.03 45.43 44.36 43.10 39.40 39.38 37.72 38.18 37.43 38.09 38.71 40.04 38.44 37.83 36.48 34.50 33.53 31.85 30.59
44.52 44.66 44.70 44.56 44.10 42.27 39.57 36.20 34.37 34.09 35.00 34.97 35.18 35.71 37.47 37.83 35.67 36.03 34.49 33.16 31.73 30.15
43.62 44.41 43.95 43.19 41.93 39.13 36.08 33.20 31.57 32.58 33.64 33.24 32.76 33.57 32.81 33.37 33.39 33.40 32.54 32.10 30.93 29.68
43.54 43.58 42.68 40.01 38.28 35.12 33.45 32.14 31.50 30.68 30.72 31.16 31.34 30.92 31.34 31.74 32.04 30.96 29.54 29.10 28.45 28.58
39.61 38.51 37.65 36.93 35.77 33.39 32.04 30.62 29.90 29.49 30.03 29.50 29.73 33.35 34.77 32.56 30.67 30.03 29.17 27.80 27.30 28.26
35.67 35.39 35.25 34.48 32.94 31.61 30.50 29.13 28.87 28.32 28.37 29.00 28.95 33.54 35.01 33.87 29.88 29.24 28.85 27.95 27.31 28.44
33.62 33.58 31.86 31.43 30.96 29.64 29.10 28.63 28.05 27.78 27.89 28.82 28.43 33.53 34.60 33.28 28.87 28.52 28.00 27.74 27.74 28.46
31.72 31.03 30.80 30.15 28.68 27.79 27.91 26.96 29.79 29.63 27.79 28.51 27.87 33.16 34.90 31.39 28.42 27.76 27.18 27.61 28.68 29.70
30.15 29.23 28.95 29.18 28.24 26.68 26.86 29.63 28.84 29.05 29.20 28.57 28.03 32.98 34.22 31.15 28.49 26.73 26.45 27.91 28.92 30.38
28.36 26.65 26.57 25.83 25.68 26.69 28.84 27.86 27.67 27.24 27.65 27.73 28.29 31.30 34.01 32.79 28.61 27.94 26.64 27.14 28.01 30.60

GFSNIL_sfc_wetblb_075.txt.gz
Wetbulb
49.21 50.08 49.76 48.57 48.85 48.94 48.48 48.30 49.40 50.17 52.53 52.83 52.24 51.02 48.56 46.58 45.16 44.73 43.67 43.00 42.88 42.16
48.60 48.50 48.93 47.65 48.13 49.10 47.87 47.16 47.91 48.84 49.86 49.90 49.92 49.85 48.41 46.74 44.31 44.33 43.12 43.11 42.63 42.04
47.39 47.86 47.86 47.40 47.03 47.28 47.19 46.26 44.94 46.56 47.80 47.91 47.97 47.81 47.25 46.15 44.85 43.82 43.63 43.47 42.19 41.51
46.06 46.53 46.58 47.10 46.80 46.48 45.06 45.33 43.68 42.97 44.68 45.44 45.68 46.31 46.16 45.86 44.62 43.22 43.25 43.04 41.45 40.19
45.07 45.07 45.22 45.76 45.27 44.27 44.57 41.91 42.79 41.32 41.58 43.07 43.23 44.02 44.76 43.89 43.19 42.13 41.21 39.86 38.46 38.01
43.78 43.86 44.66 44.70 43.53 42.95 42.16 40.70 38.07 38.72 38.84 39.19 40.45 40.80 42.02 42.36 41.48 41.08 40.91 39.51 37.21 34.94
43.58 43.98 44.24 43.08 42.32 41.56 39.86 37.75 35.29 35.63 35.75 34.99 35.77 36.39 37.57 38.49 38.15 38.23 37.30 35.66 35.35 33.20
42.88 41.99 41.69 40.04 38.78 37.84 36.10 35.09 33.86 32.46 32.01 32.13 34.11 34.58 35.14 35.62 35.74 35.06 33.11 32.61 32.48 31.54
39.32 38.14 37.47 37.25 36.58 35.54 34.07 32.64 31.62 30.94 30.67 30.76 31.97 34.54 36.80 35.26 33.93 33.31 32.16 30.20 29.60 29.33
34.98 34.81 35.66 35.25 34.93 34.09 32.52 30.93 30.39 29.81 29.24 30.36 31.38 34.46 36.27 35.81 32.05 31.84 31.43 30.23 28.66 28.69
32.43 32.91 32.14 31.48 32.34 30.47 29.96 29.04 28.03 27.47 27.43 29.99 29.73 33.58 36.11 35.25 30.82 30.58 30.36 29.46 28.99 29.29
30.67 30.80 30.01 30.13 29.07 26.87 25.77 24.99 24.69 26.05 25.95 29.17 29.02 32.97 35.42 34.58 29.20 28.98 28.54 28.59 29.65 30.07
29.94 28.02 27.59 28.41 26.10 24.56 25.49 27.19 29.22 29.54 29.64 29.37 29.12 32.42 34.67 34.16 29.06 27.32 26.78 27.70 28.59 29.98
27.61 25.56 25.61 25.34 29.06 29.59 29.57 28.61 28.33 28.01 28.09 28.36 28.63 30.31 34.37 34.69 28.80 27.25 26.64 26.91 27.60 29.58